Snowfall_Accumulation
0.0 0.1 0.1 0.1 0.1 0.1 0.0 0.0 0.0 0.0 0.0 0.0 0.0 0.0 0.2 0.7 1.0 1.2 1.8 2.4 3.1 3.9
0.0 0.0 0.1 0.1 0.0 0.1 0.1 0.0 0.0 0.0 0.0 0.0 0.2 0.5 1.4 2.7 3.2 2.7 3.3 3.6 3.7 4.2
0.1 0.2 0.2 0.1 0.1 0.2 0.2 0.2 0.3 0.4 0.3 0.5 1.4 3.0 4.2 4.9 4.5 5.2 4.0 4.5 5.4 4.3
0.9 0.2 0.2 0.3 0.8 1.4 1.3 1.3 0.9 1.5 2.3 3.7 5.7 4.2 6.0 6.5 5.5 4.9 4.7 5.1 6.3 6.0
2.3 2.2 1.4 1.9 1.7 2.1 2.3 1.1 1.6 1.9 3.5 6.1 6.5 5.0 7.1 8.0 6.0 6.9 7.5 6.8 6.8 8.0
5.1 3.9 4.8 5.9 4.7 4.6 4.4 3.6 3.2 2.4 5.8 6.8 6.6 6.0 9.0 9.1 6.4 8.4 9.7 10.7 10.3 9.3
9.5 11.3 9.3 7.9 9.6 11.0 9.0 8.1 6.9 7.7 8.7 8.3 7.3 6.7 7.3 6.4 6.9 7.5 10.7 9.2 8.0 7.7
10.5 10.8 11.1 11.1 16.0 12.9 16.2 16.7 11.7 12.2 8.5 9.1 11.1 12.5 11.0 9.7 8.4 8.3 7.5 6.6 3.1 4.2
0.0 0.4 3.8 5.3 6.4 5.5 11.6 15.7 10.4 13.0 9.5 11.6 13.9 14.9 12.5 13.9 16.7 15.4 12.7 13.4 7.9 4.9
0.0 0.2 1.1 1.0 0.6 2.6 3.2 3.7 4.2 6.1 5.3 7.3 10.8 9.1 8.8 12.2 15.3 16.5 16.2 14.9 12.8 10.6
0.1 1.5 1.8 0.5 0.5 1.8 1.7 2.3 3.9 4.8 5.0 6.0 9.2 8.0 6.5 7.2 9.3 10.9 10.4 10.7 10.1 7.2
1.8 1.6 1.1 1.3 1.0 2.7 2.9 3.3 3.7 4.0 5.2 6.8 10.8 8.2 7.2 5.3 4.9 6.2 8.3 6.9 6.6 5.0
5.0 5.4 4.9 6.0 8.4 5.5 3.7 5.6 4.3 4.3 7.9 6.7 8.2 7.4 6.7 6.0 4.1 6.1 6.2 6.1 5.5 5.8
8.9 10.2 12.4 11.2 14.7 15.4 10.5 7.8 8.4 8.3 6.7 10.1 8.6 9.4 5.8 6.0 8.2 7.4 6.1 6.5 7.9 7.6